| time (UTC) | temp C | wind direction | speed KPH | gust KPH | rain 1hr cm | rain 24hr cm | rain mn cm | humidity % | barometer mb |
| 20260507113039 | 15 | 314 | 1.6 | 6.4 | 0.00 | 0.00 | 0.00 | 53 | 1017.4 |
| 20260507111537 | 15 | 338 | 0.0 | 8.0 | 0.00 | 0.00 | 0.00 | 56 | 1017.5 |
| 20260507110035 | 14 | 309 | 1.6 | 8.0 | 0.00 | 0.00 | 0.00 | 56 | 1017.6 |
| 20260507104532 | 14 | 359 | 0.0 | 8.0 | 0.00 | 0.00 | 0.00 | 59 | 1017.7 |
| 20260507103033 | 13 | 313 | 0.0 | 4.8 | 0.00 | 0.00 | 0.00 | 61 | 1017.7 |
| 20260507101532 | 13 | 27 | 1.6 | 4.8 | 0.00 | 0.00 | 0.00 | 59 | 1017.8 |
| 20260507100035 | 13 | 303 | 1.6 | 6.4 | 0.00 | 0.00 | 0.00 | 61 | 1017.8 |
| 20260507094528 | 13 | 346 | 0.0 | 4.8 | 0.00 | 0.00 | 0.00 | 64 | 1017.7 |
| 20260507093025 | 12 | 335 | 0.0 | 3.2 | 0.00 | 0.00 | 0.00 | 66 | 1017.8 |
| 20260507091522 | 12 | 323 | 0.0 | 4.8 | 0.00 | 0.00 | 0.00 | 69 | 1017.7 |
| 20260507090022 | 11 | 334 | 0.0 | 4.8 | 0.00 | 0.00 | 0.00 | 74 | 1017.7 |
| 20260507084518 | 11 | 311 | 1.6 | 6.4 | 0.00 | 0.00 | 0.00 | 71 | 1017.9 |
| 20260507083015 | 11 | 326 | 0.0 | 3.2 | 0.00 | 0.00 | 0.00 | 73 | 1017.8 |
| 20260507081530 | 11 | 349 | 0.0 | 4.8 | 0.00 | 0.00 | 0.00 | 74 | 1017.7 |
| 20260507080009 | 10 | 305 | 1.6 | 4.8 | 0.00 | 0.00 | 0.00 | 79 | 1017.7 |
| 20260507074517 | 9 | 313 | 0.0 | 3.2 | 0.00 | 0.00 | 0.00 | 81 | 1017.7 |
| 20260507073006 | 10 | 337 | 0.0 | 4.8 | 0.00 | 0.00 | 0.00 | 81 | 1017.7 |
| 20260507071504 | 8 | 307 | 0.0 | 3.2 | 0.00 | 0.00 | 0.00 | 85 | 1017.7 |
| 20260507070002 | 8 | 342 | 0.0 | 3.2 | 0.00 | 0.00 | 0.00 | 85 | 1017.6 |
| 20260507064558 | 8 | 297 | 0.0 | 3.2 | 0.00 | 0.00 | 0.00 | 88 | 1017.7 |
| 20260507063057 | 7 | 317 | 0.0 | 3.2 | 0.00 | 0.00 | 0.00 | 91 | 1017.7 |
| 20260507061552 | 7 | 347 | 0.0 | 1.6 | 0.00 | 0.00 | 0.00 | 92 | 1017.6 |
| 20260507060048 | 6 | 349 | 0.0 | 1.6 | 0.00 | 0.00 | 0.00 | 93 | 1017.3 |
| 20260507054616 | 6 | 20 | 0.0 | 1.6 | 0.00 | 0.00 | 0.00 | 93 | 1017.3 |
| 20260507053050 | 5 | 20 | 0.0 | 1.6 | 0.00 | 0.00 | 0.00 | 93 | 1017.3 |
| 20260507051545 | 5 | 20 | 0.0 | 0.0 | 0.00 | 0.00 | 0.00 | 93 | 1017.2 |
| 20260507050043 | 5 | 20 | 0.0 | 0.0 | 0.00 | 0.00 | 0.00 | 94 | 1017.1 |
| 20260507044549 | 4 | 20 | 0.0 | 0.0 | 0.00 | 0.00 | 0.00 | 94 | 1017.1 |
| 20260507043045 | 3 | 20 | 0.0 | 0.0 | 0.00 | 0.00 | 0.00 | 94 | 1017.1 |
| 20260507041548 | 3 | 20 | 0.0 | 0.0 | 0.00 | 0.00 | 0.00 | 92 | 1017.0 |
| 20260507040044 | 3 | 20 | 0.0 | 0.0 | 0.00 | 0.00 | 0.00 | 92 | 1016.9 |
| 20260507034542 | 3 | 20 | 0.0 | 0.0 | 0.00 | 0.00 | 0.00 | 92 | 1016.9 |
| 20260507033042 | 3 | 20 | 0.0 | 0.0 | 0.00 | 0.00 | 0.00 | 92 | 1016.9 |
| 20260507031541 | 4 | 20 | 0.0 | 0.0 | 0.00 | 0.00 | 0.00 | 91 | 1016.9 |
| 20260507030046 | 5 | 20 | 0.0 | 0.0 | 0.00 | 0.00 | 0.00 | 91 | 1016.9 |
| 20260507024541 | 5 | 20 | 0.0 | 0.0 | 0.00 | 0.00 | 0.00 | 91 | 1016.9 |
| 20260507023033 | 5 | 20 | 0.0 | 1.6 | 0.00 | 0.00 | 0.00 | 91 | 1017.0 |
| 20260507021535 | 5 | 20 | 0.0 | 1.6 | 0.00 | 0.00 | 0.00 | 91 | 1017.0 |
| 20260507020032 | 5 | 20 | 0.0 | 1.6 | 0.00 | 0.00 | 0.00 | 91 | 1017.0 |
| 20260507014543 | 5 | 20 | 0.0 | 1.6 | 0.00 | 0.00 | 0.00 | 91 | 1017.1 |
| 20260507013029 | 5 | 20 | 0.0 | 1.6 | 0.00 | 0.00 | 0.00 | 92 | 1017.0 |
| 20260507011529 | 5 | 20 | 0.0 | 1.6 | 0.00 | 0.00 | 0.00 | 92 | 1017.1 |
| 20260507010032 | 5 | 20 | 0.0 | 0.0 | 0.00 | 0.00 | 0.00 | 92 | 1017.1 |
| 20260507004525 | 5 | 20 | 0.0 | 1.6 | 0.00 | 0.00 | 0.00 | 92 | 1017.1 |
| 20260507003024 | 5 | 16 | 0.0 | 1.6 | 0.00 | 0.00 | 0.00 | 92 | 1017.2 |
| 20260507001527 | 5 | 16 | 0.0 | 1.6 | 0.00 | 0.00 | 0.00 | 92 | 1017.3 |
| 20260507000032 | 4 | 16 | 0.0 | 0.0 | 0.00 | 0.00 | 0.00 | 92 | 1017.3 |
| 20260506234522 | 4 | 16 | 0.0 | 1.6 | 0.00 | 0.00 | 0.00 | 91 | 1017.2 |
| 20260506233021 | 4 | 16 | 0.0 | 0.0 | 0.00 | 0.00 | 0.00 | 91 | 1017.3 |
| 20260506231518 | 5 | 16 | 0.0 | 1.6 | 0.00 | 0.00 | 0.00 | 90 | 1017.1 |
| 20260506230017 | 5 | 16 | 0.0 | 1.6 | 0.00 | 0.00 | 0.00 | 90 | 1017.0 |
| 20260506224514 | 5 | 15 | 0.0 | 1.6 | 0.00 | 0.00 | 0.00 | 90 | 1017.0 |
| 20260506223012 | 5 | 14 | 0.0 | 1.6 | 0.00 | 0.00 | 0.00 | 89 | 1017.1 |
| 20260506221511 | 5 | 36 | 0.0 | 1.6 | 0.00 | 0.00 | 0.00 | 89 | 1017.1 |
| 20260506220019 | 5 | 149 | 1.6 | 6.4 | 0.00 | 0.00 | 0.00 | 89 | 1017.1 |
| 20260506214512 | 5 | 162 | 0.0 | 3.2 | 0.00 | 0.00 | 0.00 | 89 | 1017.1 |
| 20260506213008 | 5 | 151 | 0.0 | 3.2 | 0.00 | 0.00 | 0.00 | 88 | 1017.0 |
| 20260506211509 | 6 | 136 | 0.0 | 1.6 | 0.00 | 0.00 | 0.00 | 87 | 1016.9 |
| 20260506210033 | 6 | 135 | 0.0 | 1.6 | 0.00 | 0.00 | 0.00 | 86 | 1016.8 |
| 20260506204534 | 6 | 135 | 0.0 | 4.8 | 0.00 | 0.00 | 0.00 | 85 | 1016.7 |
| 20260506203031 | 7 | 119 | 0.0 | 3.2 | 0.00 | 0.00 | 0.00 | 84 | 1016.4 |
| 20260506201531 | 7 | 150 | 0.0 | 3.2 | 0.00 | 0.00 | 0.00 | 82 | 1016.5 |
| 20260506200029 | 7 | 74 | 0.0 | 1.6 | 0.00 | 0.00 | 0.00 | 81 | 1016.4 |
| 20260506194528 | 7 | 51 | 0.0 | 4.8 | 0.00 | 0.00 | 0.00 | 79 | 1016.4 |
| 20260506193030 | 8 | 164 | 0.0 | 4.8 | 0.00 | 0.00 | 0.00 | 78 | 1016.3 |
| 20260506191527 | 8 | 153 | 1.6 | 8.0 | 0.00 | 0.00 | 0.00 | 77 | 1016.2 |
| 20260506190025 | 9 | 328 | 0.0 | 8.0 | 0.00 | 0.00 | 0.00 | 75 | 1016.2 |
| 20260506184524 | 10 | 349 | 0.0 | 4.8 | 0.00 | 0.00 | 0.00 | 73 | 1016.1 |
| 20260506183022 | 10 | 163 | 0.0 | 3.2 | 0.00 | 0.00 | 0.00 | 72 | 1015.8 |
| 20260506181521 | 10 | 152 | 0.0 | 6.4 | 0.00 | 0.00 | 0.00 | 70 | 1015.7 |
| 20260506180021 | 10 | 173 | 1.6 | 8.0 | 0.00 | 0.00 | 0.00 | 67 | 1015.5 |
| 20260506174519 | 10 | 137 | 0.0 | 8.0 | 0.00 | 0.00 | 0.00 | 66 | 1015.2 |
| 20260506173019 | 10 | 169 | 1.6 | 9.7 | 0.00 | 0.00 | 0.00 | 66 | 1015.3 |
| 20260506171521 | 10 | 191 | 1.6 | 9.7 | 0.00 | 0.00 | 0.00 | 66 | 1015.2 |
| 20260506170021 | 11 | 83 | 1.6 | 11.3 | 0.00 | 0.00 | 0.00 | 64 | 1015.2 |
| 20260506164517 | 11 | 146 | 0.0 | 8.0 | 0.00 | 0.00 | 0.00 | 60 | 1015.2 |
| 20260506163031 | 12 | 191 | 1.6 | 8.0 | 0.00 | 0.00 | 0.00 | 59 | 1015.0 |
| 20260506161516 | 12 | 338 | 0.0 | 8.0 | 0.00 | 0.00 | 0.00 | 58 | 1015.0 |
| 20260506160019 | 12 | 342 | 1.6 | 8.0 | 0.00 | 0.00 | 0.00 | 56 | 1015.0 |
| 20260506154514 | 12 | 261 | 1.6 | 4.8 | 0.00 | 0.00 | 0.00 | 55 | 1015.2 |
| 20260506153012 | 12 | 148 | 1.6 | 8.0 | 0.00 | 0.00 | 0.00 | 57 | 1015.3 |
| 20260506151512 | 12 | 142 | 1.6 | 8.0 | 0.00 | 0.00 | 0.00 | 56 | 1015.2 |
| 20260506150012 | 12 | 176 | 3.2 | 11.3 | 0.00 | 0.00 | 0.00 | 57 | 1015.4 |
| 20260506144511 | 12 | 145 | 1.6 | 9.7 | 0.00 | 0.00 | 0.00 | 57 | 1015.4 |
| 20260506143011 | 12 | 156 | 4.8 | 11.3 | 0.00 | 0.00 | 0.00 | 57 | 1015.4 |
| 20260506141509 | 12 | 342 | 0.0 | 11.3 | 0.00 | 0.00 | 0.00 | 57 | 1015.3 |
| 20260506140010 | 12 | 347 | 1.6 | 8.0 | 0.00 | 0.00 | 0.00 | 56 | 1015.4 |
| 20260506134509 | 12 | 167 | 1.6 | 11.3 | 0.00 | 0.00 | 0.00 | 56 | 1015.3 |
| 20260506133006 | 12 | 203 | 1.6 | 12.9 | 0.00 | 0.00 | 0.00 | 57 | 1015.4 |
| 20260506131505 | 11 | 150 | 4.8 | 11.3 | 0.00 | 0.00 | 0.00 | 59 | 1015.5 |
| 20260506130004 | 12 | 333 | 3.2 | 11.3 | 0.00 | 0.00 | 0.00 | 58 | 1015.5 |
| 20260506124503 | 12 | 349 | 0.0 | 11.3 | 0.00 | 0.00 | 0.00 | 59 | 1015.5 |
| 20260506123001 | 11 | 150 | 3.2 | 16.1 | 0.00 | 0.00 | 0.00 | 61 | 1015.5 |
| 20260506121600 | 11 | 176 | 3.2 | 12.9 | 0.00 | 0.00 | 0.00 | 62 | 1015.5 |
| 20260506114607 | 11 | 337 | 6.4 | 17.7 | 0.00 | 0.00 | 0.00 | 61 | 1015.6 |